Location: Prairie View Elementary School
(39.8322°N, 99.5698°W)
Time: 09:16:57
(UTC+00:00)

Cosmos 1862 Rocket - Pass Details

Date: 08 December 2019
Orbit: 604 x 634 km, 82.5° (Epoch: 28 January)

Event Time Altitude Azimuth Distance (km) Brightness Sun altitude
Exits shadow 11:53:55 37° 227° (SW) 989 4.3 -21.0°
Drops below altitude 10° 11:57:01 10° 195° (SSW) 2,011 6.2 -20.4°
Sets 11:59:19 0° 189° (S) 2,914 7.1 -20.0°
